Zurück zum Katalog

STARLINK-3178

AktivKommunikationVLEO
NORAD 51467·PAYLOAD·🇺🇸 United States

Gestartet Feb 3, 2022 von Cape Canaveral Space Force Station

Loading…

Nächste Überflüge (nächste 24 Stunden)

TLE

AktuellSource: CelesTrak SupGP

Epoche: Sep 14, 2026, 21:12 UTC

1 51467C 22010M   26257.88381944 -.00027535  00000+0 -83589-3 0  2571
2 51467  53.1588 142.2074 0001302  90.2297  60.4267 15.33548983    15

Verfolge STARLINK-3178 in Echtzeit mit AllMySat

Download on the App Store